TimeEST,TemperatureF,Dew PointF,Humidity,Sea Level PressureIn,VisibilityMPH,Wind Direction,Wind SpeedMPH,Gust SpeedMPH,PrecipitationIn,Events,Conditions,WindDirDegrees,DateUTC
12:51 AM,53.1,48.0,83,30.04,10.0,West,6.9,-,N/A,,Overcast,280,2011-12-16 05:51:00
1:32 AM,53.6,46.4,77,30.09,10.0,West,13.8,21.9,N/A,,Mostly Cloudy,270,2011-12-16 06:32:00
1:51 AM,53.6,44.6,72,30.10,10.0,WNW,13.8,20.7,N/A,,Overcast,300,2011-12-16 06:51:00
2:51 AM,50.0,42.8,76,30.12,10.0,WNW,9.2,19.6,N/A,,Partly Cloudy,290,2011-12-16 07:51:00
3:10 AM,50.0,42.8,76,30.13,10.0,NNW,10.4,-,N/A,,Mostly Cloudy,330,2011-12-16 08:10:00
3:36 AM,48.2,35.6,62,30.14,10.0,NW,12.7,-,N/A,,Overcast,320,2011-12-16 08:36:00
3:51 AM,46.9,30.9,54,30.14,10.0,NW,8.1,-,N/A,,Scattered Clouds,310,2011-12-16 08:51:00
4:51 AM,44.1,35.1,71,30.16,10.0,NNW,6.9,-,N/A,,Mostly Cloudy,330,2011-12-16 09:51:00
5:51 AM,41.0,36.0,82,30.19,10.0,NNW,12.7,-,N/A,,Scattered Clouds,340,2011-12-16 10:51:00
5:59 AM,39.2,35.6,87,30.18,10.0,North,12.7,-,N/A,,Mostly Cloudy,10,2011-12-16 10:59:00
6:06 AM,39.2,35.6,87,30.18,10.0,North,11.5,-,N/A,,Mostly Cloudy,360,2011-12-16 11:06:00
6:51 AM,37.9,33.1,83,30.22,10.0,NNW,8.1,-,N/A,,Overcast,330,2011-12-16 11:51:00
7:51 AM,36.0,32.0,86,30.22,10.0,North,6.9,-,N/A,,Overcast,350,2011-12-16 12:51:00
8:51 AM,36.0,30.9,82,30.24,10.0,North,5.8,-,N/A,,Overcast,10,2011-12-16 13:51:00
9:51 AM,36.0,30.9,82,30.27,10.0,NW,3.5,-,N/A,,Scattered Clouds,310,2011-12-16 14:51:00
10:51 AM,37.0,30.9,79,30.23,10.0,NNE,3.5,-,N/A,,Mostly Cloudy,20,2011-12-16 15:51:00
11:51 AM,37.0,30.9,79,30.26,10.0,WNW,3.5,-,0.00,Rain,Light Rain,290,2011-12-16 16:51:00
12:51 PM,37.0,33.1,86,30.20,7.0,Calm,Calm,-,0.02,Rain,Light Rain,0,2011-12-16 17:51:00
1:47 PM,37.4,33.8,87,30.15,9.0,North,3.5,-,0.01,,Mostly Cloudy,10,2011-12-16 18:47:00
1:51 PM,37.0,34.0,89,30.17,9.0,NE,3.5,-,0.01,,Mostly Cloudy,40,2011-12-16 18:51:00
2:34 PM,37.4,33.8,87,30.14,9.0,NNW,4.6,-,N/A,,Overcast,340,2011-12-16 19:34:00
2:51 PM,37.4,33.8,87,30.14,10.0,North,3.5,-,N/A,,Overcast,360,2011-12-16 19:51:00
3:14 PM,37.4,33.8,87,30.15,7.0,North,8.1,-,0.00,Rain,Light Rain,360,2011-12-16 20:14:00
3:48 PM,37.4,33.8,87,30.14,5.0,Calm,Calm,-,0.02,Rain,Light Rain,0,2011-12-16 20:48:00
3:51 PM,37.0,33.1,86,30.18,6.0,North,3.5,-,0.02,Rain,Light Rain,10,2011-12-16 20:51:00
4:26 PM,37.4,33.8,87,30.16,8.0,Calm,Calm,-,N/A,Rain,Light Rain,0,2011-12-16 21:26:00
4:42 PM,35.6,33.8,93,30.16,7.0,North,4.6,-,0.01,Rain,Light Rain,360,2011-12-16 21:42:00
4:51 PM,36.0,34.0,93,30.20,5.0,North,3.5,-,0.01,Rain,Light Rain,10,2011-12-16 21:51:00
5:44 PM,35.6,33.8,93,30.17,5.0,Calm,Calm,-,0.01,Snow,Light Snow,0,2011-12-16 22:44:00
5:51 PM,35.1,32.0,89,30.22,4.0,Calm,Calm,-,0.01,Snow,Light Snow,0,2011-12-16 22:51:00
6:13 PM,33.8,32.0,93,30.17,2.5,North,4.6,-,0.00,Snow,Light Snow,350,2011-12-16 23:13:00
6:22 PM,33.8,32.0,93,30.18,1.2,NNW,4.6,-,0.01,Snow,Light Snow,340,2011-12-16 23:22:00
6:25 PM,33.8,32.0,93,30.18,1.2,NNW,4.6,-,0.01,Snow,Light Snow,340,2011-12-16 23:25:00
6:51 PM,33.1,32.0,96,30.25,1.2,North,4.6,-,0.02,Snow,Light Snow,350,2011-12-16 23:51:00
7:36 PM,33.8,32.0,93,30.20,2.0,Calm,Calm,-,0.01,Snow,Light Snow,0,2011-12-17 00:36:00
7:51 PM,33.1,32.0,96,30.27,2.0,Calm,Calm,-,0.01,Snow,Light Snow,0,2011-12-17 00:51:00
8:05 PM,33.8,32.0,93,30.19,1.5,Calm,Calm,-,0.00,Snow,Light Snow,0,2011-12-17 01:05:00
8:17 PM,33.8,32.0,93,30.19,2.5,Calm,Calm,-,0.00,Snow,Light Snow,0,2011-12-17 01:17:00
8:27 PM,33.8,30.2,87,30.20,1.5,Calm,Calm,-,0.01,Snow,Light Snow,0,2011-12-17 01:27:00
8:48 PM,33.8,32.0,93,30.19,1.5,SSW,3.5,-,0.02,Snow,Light Snow,200,2011-12-17 01:48:00
8:51 PM,33.1,32.0,96,30.25,2.0,SSW,3.5,-,0.02,Snow,Light Snow,200,2011-12-17 01:51:00
8:55 PM,33.8,32.0,93,30.18,3.0,SSW,3.5,-,0.00,Snow,Light Snow,210,2011-12-17 01:55:00
9:11 PM,33.8,32.0,93,30.19,5.0,Calm,Calm,-,0.00,,Overcast,0,2011-12-17 02:11:00
9:32 PM,33.8,32.0,93,30.19,3.0,WNW,3.5,-,0.00,,Overcast,300,2011-12-17 02:32:00
9:51 PM,33.1,32.0,96,30.27,4.0,NW,5.8,-,0.00,,Overcast,320,2011-12-17 02:51:00
10:49 PM,33.8,30.2,87,30.20,10.0,North,9.2,-,N/A,,Overcast,350,2011-12-17 03:49:00
10:51 PM,33.1,30.9,92,30.27,10.0,NNW,4.6,-,N/A,,Overcast,340,2011-12-17 03:51:00
10:53 PM,33.8,30.2,87,30.19,10.0,NNW,8.1,-,N/A,,Overcast,330,2011-12-17 03:53:00
11:02 PM,33.8,30.2,87,30.18,10.0,NNW,4.6,-,N/A,,Overcast,340,2011-12-17 04:02:00
11:24 PM,33.8,30.2,87,30.18,10.0,NNW,5.8,-,N/A,,Overcast,330,2011-12-17 04:24:00
11:40 PM,33.8,30.2,87,30.18,9.0,NW,5.8,-,N/A,,Overcast,320,2011-12-17 04:40:00
11:51 PM,33.1,30.9,92,30.25,9.0,NNW,6.9,-,N/A,,Overcast,340,2011-12-17 04:51:00